UAE91M OMDB-VAAH

Flight info

Callsign UAE91M
Flight time 2h 10m
Altitude 41000
Route IVURO M677 LALDO B505 NADSO B524 ALPOR M504 TELEM N893 VASLA VASLA1A
Aircraft A359/H-SDE2E3GHIJ3J4J5LM1ORWXY/LB1D1

Departure

Time 2026-04-30 11:30
Airport Dubai International Airport (OMDB)

Arrival

Time 2026-04-30 13:40
Airport Sardar Vallabh Patel International Airport (VAAH)
Time Latitude Longitude Altitude Speed Heading
2026-04-30 10:39 25.24848 55.35951 28 ft 0 kts 30°
2026-04-30 11:16 25.24844 55.35949 28 ft 4 kts 28°
2026-04-30 11:16 25.24820 55.35934 28 ft 4 kts 31°
2026-04-30 11:16 25.24815 55.35931 27 ft 0 kts 30°
2026-04-30 11:19 25.24816 55.35940 28 ft 3 kts 78°
2026-04-30 11:19 25.24796 55.35953 28 ft 6 kts 160°
2026-04-30 11:20 25.24746 55.35984 28 ft 9 kts 141°
2026-04-30 11:20 25.24712 55.36040 28 ft 10 kts 127°
2026-04-30 11:20 25.24671 55.36103 28 ft 11 kts 123°
2026-04-30 11:20 25.24623 55.36183 28 ft 14 kts 123°
2026-04-30 11:21 25.24570 55.36283 28 ft 16 kts 120°
2026-04-30 11:21 25.24508 55.36396 28 ft 17 kts 120°
2026-04-30 11:21 25.24457 55.36508 28 ft 16 kts 101°
2026-04-30 11:21 25.24468 55.36622 28 ft 14 kts 58°
2026-04-30 11:22 25.24530 55.36698 28 ft 14 kts 50°
2026-04-30 11:22 25.24559 55.36796 28 ft 12 kts 59°
2026-04-30 11:22 25.24627 55.36859 28 ft 14 kts 30°
2026-04-30 11:22 25.24719 55.36917 28 ft 16 kts 30°
2026-04-30 11:23 25.24759 55.37017 28 ft 16 kts 111°
2026-04-30 11:23 25.24694 55.37132 28 ft 19 kts 120°
2026-04-30 11:23 25.24544 55.37408 28 ft 24 kts 121°
2026-04-30 11:24 25.24496 55.37494 28 ft 19 kts 121°
2026-04-30 11:24 25.24424 55.37623 28 ft 21 kts 121°
2026-04-30 11:24 25.24364 55.37737 28 ft 17 kts 120°
2026-04-30 11:25 25.24220 55.37995 28 ft 22 kts 121°
2026-04-30 11:25 25.24132 55.38151 28 ft 25 kts 121°
2026-04-30 11:25 25.23964 55.38455 28 ft 24 kts 121°
2026-04-30 11:26 25.23786 55.38775 28 ft 26 kts 121°
2026-04-30 11:26 25.23702 55.38924 28 ft 20 kts 122°
2026-04-30 11:26 25.23633 55.39048 28 ft 20 kts 121°
2026-04-30 11:27 25.23562 55.39181 28 ft 17 kts 121°
2026-04-30 11:27 25.23513 55.39271 28 ft 15 kts 122°
2026-04-30 11:27 25.23452 55.39375 28 ft 18 kts 121°
2026-04-30 11:27 25.23408 55.39457 28 ft 4 kts 118°
2026-04-30 11:28 25.23355 55.39552 28 ft 11 kts 122°
2026-04-30 11:28 25.23339 55.39629 28 ft 10 kts 72°
2026-04-30 11:28 25.23390 55.39677 28 ft 10 kts 14°
2026-04-30 11:29 25.23466 55.39658 28 ft 12 kts 337°
2026-04-30 11:29 25.23530 55.39593 28 ft 14 kts 305°
2026-04-30 11:29 25.23954 55.38826 29 ft 128 kts 301°
2026-04-30 11:30 25.25141 55.36565 899 ft 182 kts 298°
2026-04-30 11:30 25.25751 55.35288 1611 ft 200 kts 300°
2026-04-30 11:30 25.26525 55.33927 1889 ft 220 kts 305°
2026-04-30 11:31 25.27440 55.32536 2458 ft 226 kts 307°
2026-04-30 11:31 25.28371 55.31155 3279 ft 221 kts 307°
2026-04-30 11:31 25.29445 55.29981 4105 ft 217 kts 324°
2026-04-30 11:31 25.30901 55.29465 4697 ft 230 kts 354°
2026-04-30 11:32 25.32534 55.29543 5190 ft 239 kts
2026-04-30 11:32 25.34220 55.29601 5723 ft 246 kts 357°
2026-04-30 11:32 25.35951 55.29620 6306 ft 251 kts 358°
2026-04-30 11:33 25.39461 55.30026 7448 ft 261 kts 17°
2026-04-30 11:33 25.40955 55.31170 7905 ft 275 kts 45°
2026-04-30 11:33 25.42166 55.32896 8320 ft 286 kts 51°
2026-04-30 11:33 25.43394 55.34706 8634 ft 301 kts 50°
2026-04-30 11:34 25.44716 55.36511 9047 ft 310 kts 48°
2026-04-30 11:34 25.46120 55.38394 9565 ft 316 kts 48°
2026-04-30 11:34 25.47525 55.40285 10069 ft 321 kts 49°
2026-04-30 11:34 25.48941 55.42209 10358 ft 334 kts 49°
2026-04-30 11:35 25.50401 55.44274 10593 ft 348 kts 50°
2026-04-30 11:35 25.51801 55.46519 10799 ft 363 kts 60°
2026-04-30 11:35 25.52572 55.49215 10977 ft 376 kts 85°
2026-04-30 11:35 25.52325 55.52094 11295 ft 378 kts 109°
2026-04-30 11:36 25.51179 55.54697 11705 ft 377 kts 125°
2026-04-30 11:36 25.49748 55.57136 12159 ft 379 kts 127°
2026-04-30 11:36 25.48291 55.59576 12628 ft 382 kts 127°
2026-04-30 11:36 25.46838 55.62045 13099 ft 384 kts 126°
2026-04-30 11:37 25.45394 55.64533 13553 ft 386 kts 126°
2026-04-30 11:37 25.43946 55.67048 13943 ft 389 kts 126°
2026-04-30 11:37 25.42664 55.69704 14311 ft 396 kts 114°
2026-04-30 11:37 25.41876 55.72643 14694 ft 401 kts 106°
2026-04-30 11:38 25.41238 55.75655 15069 ft 404 kts 105°
2026-04-30 11:38 25.40613 55.78695 15435 ft 407 kts 105°
2026-04-30 11:38 25.39976 55.81754 15835 ft 409 kts 105°
2026-04-30 11:38 25.39327 55.84829 16220 ft 412 kts 105°
2026-04-30 11:39 25.38669 55.87925 16603 ft 414 kts 105°
2026-04-30 11:39 25.38007 55.91030 17049 ft 415 kts 105°
2026-04-30 11:39 25.37342 55.94143 17440 ft 418 kts 105°
2026-04-30 11:39 25.36674 55.97284 17806 ft 421 kts 106°
2026-04-30 11:40 25.35996 56.00447 18152 ft 424 kts 106°
2026-04-30 11:40 25.35312 56.03629 18463 ft 427 kts 106°
2026-04-30 11:40 25.34623 56.06835 18784 ft 430 kts 106°
2026-04-30 11:40 25.33928 56.10065 19087 ft 433 kts 106°
2026-04-30 11:41 25.33228 56.13311 19403 ft 436 kts 106°
2026-04-30 11:41 25.32652 56.16612 19728 ft 439 kts 101°
2026-04-30 11:41 25.32260 56.19974 20061 ft 443 kts 98°
2026-04-30 11:41 25.31970 56.23365 20392 ft 445 kts 97°
2026-04-30 11:42 25.31721 56.26792 20660 ft 449 kts 96°
2026-04-30 11:42 25.31481 56.30202 20975 ft 452 kts 97°
2026-04-30 11:42 25.31227 56.33676 21229 ft 456 kts 97°
2026-04-30 11:42 25.30957 56.37179 21501 ft 459 kts 97°
2026-04-30 11:43 25.30677 56.40696 21801 ft 462 kts 97°
2026-04-30 11:43 25.30486 56.44255 22086 ft 465 kts 94°
2026-04-30 11:43 25.30385 56.47835 22377 ft 468 kts 93°
2026-04-30 11:43 25.30319 56.51437 22666 ft 470 kts 93°
2026-04-30 11:44 25.30255 56.55059 22952 ft 472 kts 93°
2026-04-30 11:44 25.29992 56.58669 23244 ft 472 kts 102°
2026-04-30 11:44 25.29205 56.62175 23517 ft 469 kts 111°
2026-04-30 11:44 25.28126 56.65575 23759 ft 469 kts 115°
2026-04-30 11:45 25.26923 56.68921 24024 ft 469 kts 116°
2026-04-30 11:45 25.25653 56.72247 24276 ft 470 kts 117°
2026-04-30 11:45 25.24357 56.75568 24535 ft 472 kts 117°
2026-04-30 11:45 25.23055 56.78901 24795 ft 473 kts 117°
2026-04-30 11:46 25.21757 56.82244 25049 ft 475 kts 117°
2026-04-30 11:46 25.20465 56.85601 25306 ft 476 kts 117°
2026-04-30 11:46 25.19176 56.88969 25597 ft 477 kts 117°
2026-04-30 11:46 25.17884 56.92358 25844 ft 479 kts 117°
2026-04-30 11:47 25.16593 56.95749 26104 ft 481 kts 117°
2026-04-30 11:47 25.15296 56.99154 26353 ft 482 kts 117°
2026-04-30 11:47 25.13996 57.02567 26678 ft 482 kts 117°
2026-04-30 11:47 25.12692 57.05986 26958 ft 484 kts 117°
2026-04-30 11:48 25.11383 57.09413 27214 ft 486 kts 117°
2026-04-30 11:48 25.10068 57.12853 27456 ft 488 kts 117°
2026-04-30 11:48 25.08743 57.16313 27706 ft 491 kts 117°
2026-04-30 11:48 25.07413 57.19783 27986 ft 492 kts 117°
2026-04-30 11:49 25.06078 57.23268 28259 ft 494 kts 117°
2026-04-30 11:49 25.04738 57.26760 28534 ft 495 kts 117°
2026-04-30 11:49 25.03393 57.30263 28805 ft 497 kts 117°
2026-04-30 11:49 25.02042 57.33779 29075 ft 499 kts 117°
2026-04-30 11:50 25.00684 57.37308 29327 ft 501 kts 117°
2026-04-30 11:50 24.99321 57.40849 29550 ft 503 kts 117°
2026-04-30 11:50 24.97952 57.44402 29917 ft 503 kts 116°
2026-04-30 11:50 24.96587 57.47945 30167 ft 504 kts 116°
2026-04-30 11:51 24.95210 57.51512 30384 ft 507 kts 116°
2026-04-30 11:51 24.93826 57.55095 30610 ft 509 kts 116°
2026-04-30 11:51 24.92436 57.58689 30855 ft 511 kts 116°
2026-04-30 11:51 24.91041 57.62296 31110 ft 513 kts 116°
2026-04-30 11:52 24.89639 57.65915 31358 ft 515 kts 116°
2026-04-30 11:52 24.88228 57.69555 31567 ft 518 kts 116°
2026-04-30 11:52 24.86811 57.73209 31791 ft 520 kts 116°
2026-04-30 11:52 24.85388 57.76873 32035 ft 521 kts 116°
2026-04-30 11:53 24.83991 57.80558 32254 ft 524 kts 114°
2026-04-30 11:53 24.82909 57.84415 32490 ft 528 kts 107°
2026-04-30 11:53 24.82311 57.87002 32740 ft 527 kts 107°
2026-04-30 11:53 24.81188 57.92264 33087 ft 529 kts 105°
2026-04-30 11:54 24.80655 57.94886 33203 ft 531 kts 105°
2026-04-30 11:54 24.79602 58.00159 33453 ft 534 kts 105°
2026-04-30 11:54 24.78806 58.04152 33662 ft 535 kts 105°
2026-04-30 11:54 24.78263 58.06858 33809 ft 536 kts 105°
2026-04-30 11:55 24.77190 58.12173 34046 ft 538 kts 105°
2026-04-30 11:55 24.76637 58.14891 34195 ft 539 kts 105°
2026-04-30 11:55 24.75816 58.18912 34477 ft 538 kts 105°
2026-04-30 11:55 24.74995 58.22920 34757 ft 537 kts 105°
2026-04-30 11:56 24.74171 58.26932 35017 ft 537 kts 105°
2026-04-30 11:56 24.73347 58.30937 35327 ft 536 kts 105°
2026-04-30 11:56 24.72524 58.34931 35635 ft 535 kts 105°
2026-04-30 11:56 24.71701 58.38922 35931 ft 535 kts 105°
2026-04-30 11:57 24.70877 58.42910 36239 ft 534 kts 105°
2026-04-30 11:57 24.70054 58.46888 36537 ft 534 kts 105°
2026-04-30 11:57 24.69231 58.50866 36859 ft 533 kts 106°
2026-04-30 11:57 24.68407 58.54840 37178 ft 532 kts 106°
2026-04-30 11:58 24.67583 58.58804 37496 ft 532 kts 106°
2026-04-30 11:58 24.66761 58.62759 37822 ft 531 kts 106°
2026-04-30 11:58 24.65939 58.66708 38125 ft 530 kts 106°
2026-04-30 11:58 24.65115 58.70658 38417 ft 529 kts 106°
2026-04-30 11:59 24.64290 58.74606 38674 ft 529 kts 106°
2026-04-30 11:59 24.63469 58.78536 38956 ft 527 kts 106°
2026-04-30 11:59 24.62657 58.82413 39218 ft 526 kts 106°
2026-04-30 11:59 24.61839 58.86316 39479 ft 525 kts 106°
2026-04-30 12:00 24.61018 58.90227 39732 ft 524 kts 106°
2026-04-30 12:00 24.60198 58.94125 39979 ft 523 kts 107°
2026-04-30 12:00 24.59379 58.98013 40225 ft 522 kts 107°
2026-04-30 12:00 24.58562 59.01891 40465 ft 521 kts 107°
2026-04-30 12:01 24.57743 59.05768 40677 ft 520 kts 107°
2026-04-30 12:01 24.56927 59.09630 40745 ft 519 kts 107°
2026-04-30 12:01 24.55294 59.17341 40746 ft 518 kts 107°
2026-04-30 12:02 24.53661 59.25044 40747 ft 518 kts 107°
2026-04-30 12:02 24.52020 59.32743 40744 ft 518 kts 107°
2026-04-30 12:03 24.49549 59.44284 40743 ft 517 kts 107°
2026-04-30 12:04 24.47899 59.51971 40744 ft 517 kts 107°
2026-04-30 12:04 24.46246 59.59656 40747 ft 517 kts 107°
2026-04-30 12:05 24.44588 59.67347 40735 ft 518 kts 107°
2026-04-30 12:05 24.42924 59.75041 40743 ft 521 kts 107°
2026-04-30 12:06 24.41243 59.82782 40745 ft 528 kts 107°
2026-04-30 12:06 24.39537 59.90635 40743 ft 530 kts 107°
2026-04-30 12:07 24.37826 59.98497 40741 ft 530 kts 107°
2026-04-30 12:07 24.36109 60.06358 40744 ft 530 kts 107°
2026-04-30 12:08 24.34390 60.14217 40744 ft 530 kts 107°
2026-04-30 12:08 24.32665 60.22077 40741 ft 530 kts 107°
2026-04-30 12:09 24.30935 60.29936 40736 ft 530 kts 107°
2026-04-30 12:09 24.29205 60.37781 40741 ft 529 kts 107°
2026-04-30 12:10 24.27473 60.45613 40737 ft 529 kts 107°
2026-04-30 12:10 24.25738 60.53439 40736 ft 529 kts 107°
2026-04-30 12:11 24.23998 60.61266 40740 ft 529 kts 107°
2026-04-30 12:11 24.22254 60.69092 40735 ft 529 kts 107°
2026-04-30 12:12 24.20508 60.76913 40736 ft 529 kts 107°
2026-04-30 12:12 24.18758 60.84746 40735 ft 530 kts 107°
2026-04-30 12:13 24.17004 60.92577 40733 ft 530 kts 107°
2026-04-30 12:13 24.15247 61.00404 40732 ft 528 kts 107°
2026-04-30 12:14 24.13492 61.08204 40735 ft 528 kts 107°
2026-04-30 12:14 24.11731 61.16005 40733 ft 528 kts 107°
2026-04-30 12:15 24.09967 61.23803 40731 ft 528 kts 107°
2026-04-30 12:15 24.08238 61.31611 40727 ft 529 kts 104°
2026-04-30 12:16 24.07411 61.39636 40731 ft 532 kts 97°
2026-04-30 12:16 24.06907 61.47717 40733 ft 532 kts 96°
2026-04-30 12:17 24.06225 61.59846 40727 ft 532 kts 96°
2026-04-30 12:17 24.05747 61.67932 40727 ft 532 kts 96°
2026-04-30 12:18 24.05255 61.76014 40722 ft 532 kts 96°
2026-04-30 12:18 24.04758 61.84083 40730 ft 531 kts 96°
2026-04-30 12:19 24.04258 61.92128 40732 ft 530 kts 96°
2026-04-30 12:19 24.03757 62.00125 40731 ft 530 kts 96°
2026-04-30 12:20 24.03250 62.08169 40729 ft 530 kts 96°
2026-04-30 12:20 24.02738 62.16213 40727 ft 530 kts 96°
2026-04-30 12:21 24.02222 62.24253 40727 ft 530 kts 96°
2026-04-30 12:21 24.01702 62.32295 40727 ft 530 kts 96°
2026-04-30 12:22 24.01178 62.40335 40724 ft 530 kts 96°
2026-04-30 12:22 24.00650 62.48367 40724 ft 530 kts 96°
2026-04-30 12:23 24.00117 62.56402 40718 ft 530 kts 96°
2026-04-30 12:23 23.99580 62.64445 40725 ft 530 kts 96°
2026-04-30 12:24 23.99039 62.72483 40721 ft 530 kts 96°
2026-04-30 12:24 23.98494 62.80524 40720 ft 530 kts 96°
2026-04-30 12:25 23.97944 62.88559 40717 ft 529 kts 96°
2026-04-30 12:25 23.97393 62.96565 40718 ft 528 kts 96°
2026-04-30 12:26 23.96838 63.04560 40717 ft 527 kts 96°
2026-04-30 12:26 23.96279 63.12562 40720 ft 527 kts 96°
2026-04-30 12:27 23.95715 63.20557 40717 ft 528 kts 96°
2026-04-30 12:27 23.95147 63.28558 40716 ft 528 kts 96°
2026-04-30 12:28 23.94575 63.36554 40715 ft 528 kts 96°
2026-04-30 12:28 23.94003 63.44503 40710 ft 528 kts 96°
2026-04-30 12:29 23.93422 63.52501 40715 ft 528 kts 96°
2026-04-30 12:29 23.92838 63.60495 40718 ft 528 kts 96°
2026-04-30 12:30 23.92250 63.68491 40713 ft 528 kts 96°
2026-04-30 12:30 23.91657 63.76486 40708 ft 528 kts 96°
2026-04-30 12:31 23.91061 63.84471 40709 ft 527 kts 96°
2026-04-30 12:31 23.90461 63.92454 40705 ft 527 kts 96°
2026-04-30 12:32 23.89857 64.00430 40722 ft 526 kts 96°
2026-04-30 12:32 23.89250 64.08389 40711 ft 525 kts 96°
2026-04-30 12:33 23.88640 64.16341 40718 ft 526 kts 96°
2026-04-30 12:33 23.88025 64.24306 40714 ft 526 kts 96°
2026-04-30 12:34 23.87406 64.32263 40702 ft 526 kts 96°
2026-04-30 12:34 23.86783 64.40217 40707 ft 526 kts 96°
2026-04-30 12:35 23.86156 64.48170 40720 ft 526 kts 96°
2026-04-30 12:35 23.85525 64.56124 40723 ft 525 kts 96°
2026-04-30 12:36 23.84894 64.64023 40718 ft 525 kts 96°
2026-04-30 12:36 23.84255 64.71974 40717 ft 525 kts 96°
2026-04-30 12:37 23.83612 64.79923 40704 ft 525 kts 96°
2026-04-30 12:37 23.83367 64.87903 40722 ft 526 kts 91°
2026-04-30 12:38 23.83389 64.95890 40706 ft 526 kts 90°
2026-04-30 12:38 23.83451 65.03891 40724 ft 527 kts 90°
2026-04-30 12:39 23.83507 65.11889 40724 ft 527 kts 90°
2026-04-30 12:39 23.83550 65.19893 40707 ft 527 kts 90°
2026-04-30 12:40 23.83585 65.27886 40720 ft 525 kts 90°
2026-04-30 12:40 23.83614 65.35861 40704 ft 525 kts 90°
2026-04-30 12:41 23.83641 65.43839 40719 ft 525 kts 90°
2026-04-30 12:41 23.83660 65.50470 40706 ft 526 kts 90°
2026-04-30 12:42 23.83679 65.58450 40723 ft 525 kts 90°
2026-04-30 12:42 23.83696 65.67783 40719 ft 526 kts 90°
2026-04-30 12:43 23.83705 65.74418 40724 ft 526 kts 90°
2026-04-30 12:43 23.83712 65.82405 40703 ft 526 kts 90°
2026-04-30 12:44 23.83715 65.90391 40718 ft 526 kts 90°
2026-04-30 12:44 23.83713 65.98379 40713 ft 526 kts 90°
2026-04-30 12:45 23.83708 66.06363 40717 ft 526 kts 90°
2026-04-30 12:45 23.83698 66.14347 40721 ft 526 kts 90°
2026-04-30 12:46 23.83685 66.22335 40721 ft 526 kts 90°
2026-04-30 12:46 23.83666 66.30325 40718 ft 526 kts 90°
2026-04-30 12:47 23.83644 66.38320 40716 ft 527 kts 90°
2026-04-30 12:47 23.83618 66.46320 40714 ft 527 kts 90°
2026-04-30 12:48 23.83588 66.54323 40708 ft 527 kts 90°
2026-04-30 12:48 23.83554 66.62272 40725 ft 527 kts 90°
2026-04-30 12:49 23.83515 66.70282 40711 ft 527 kts 90°
2026-04-30 12:49 23.83473 66.78291 40711 ft 527 kts 90°
2026-04-30 12:50 23.83426 66.86307 40719 ft 527 kts 90°
2026-04-30 12:50 23.83375 66.94318 40716 ft 528 kts 90°
2026-04-30 12:51 23.83790 67.02299 40716 ft 526 kts 81°
2026-04-30 12:51 23.84975 67.10172 40712 ft 525 kts 79°
2026-04-30 12:52 23.86292 67.18006 40712 ft 524 kts 78°
2026-04-30 12:52 23.87616 67.25844 40719 ft 525 kts 78°
2026-04-30 12:53 23.88919 67.33690 40719 ft 525 kts 79°
2026-04-30 12:53 23.90211 67.41549 40712 ft 525 kts 79°
2026-04-30 12:54 23.91495 67.49404 40703 ft 526 kts 79°
2026-04-30 12:54 23.92780 67.57289 40713 ft 527 kts 78°
2026-04-30 12:55 23.94064 67.65188 40714 ft 528 kts 78°
2026-04-30 12:55 23.95344 67.73091 40697 ft 528 kts 78°
2026-04-30 12:56 23.96622 67.80999 40704 ft 528 kts 78°
2026-04-30 12:56 23.97894 67.88904 40709 ft 528 kts 79°
2026-04-30 12:57 23.99162 67.96816 40713 ft 528 kts 79°
2026-04-30 12:57 24.00426 68.04722 40707 ft 528 kts 79°
2026-04-30 12:58 24.01687 68.12637 40696 ft 528 kts 79°
2026-04-30 12:58 24.02943 68.20551 40694 ft 528 kts 78°
2026-04-30 12:59 24.04196 68.28472 40704 ft 529 kts 78°
2026-04-30 12:59 24.05438 68.36347 40706 ft 529 kts 78°
2026-04-30 13:00 24.06685 68.44282 40694 ft 529 kts 79°
2026-04-30 13:00 24.07928 68.52217 40707 ft 529 kts 79°
2026-04-30 13:01 24.09165 68.60155 40696 ft 530 kts 78°
2026-04-30 13:01 24.10402 68.68108 40691 ft 530 kts 78°
2026-04-30 13:02 24.11139 68.76124 40703 ft 532 kts 91°
2026-04-30 13:02 24.09814 68.84076 40702 ft 532 kts 105°
2026-04-30 13:03 24.07799 68.91864 40707 ft 531 kts 105°
2026-04-30 13:03 24.05769 68.99639 40702 ft 532 kts 105°
2026-04-30 13:04 24.03739 69.07420 40702 ft 532 kts 105°
2026-04-30 13:04 24.01710 69.15191 40696 ft 532 kts 105°
2026-04-30 13:05 23.99674 69.22970 40701 ft 532 kts 105°
2026-04-30 13:06 23.96611 69.34646 40701 ft 533 kts 105°
2026-04-30 13:06 23.94564 69.42430 40706 ft 533 kts 105°
2026-04-30 13:07 23.92512 69.50213 40701 ft 533 kts 105°
2026-04-30 13:07 23.90456 69.57991 40700 ft 533 kts 105°
2026-04-30 13:08 23.88409 69.65723 40699 ft 533 kts 105°
2026-04-30 13:08 23.86344 69.73501 40701 ft 533 kts 105°
2026-04-30 13:09 23.84276 69.81276 40696 ft 533 kts 105°
2026-04-30 13:09 23.82202 69.89058 40690 ft 534 kts 105°
2026-04-30 13:10 23.80122 69.96842 40695 ft 534 kts 105°
2026-04-30 13:10 23.78037 70.04629 40692 ft 534 kts 105°
2026-04-30 13:11 23.75948 70.12413 40687 ft 534 kts 105°
2026-04-30 13:11 23.73856 70.20190 40696 ft 534 kts 105°
2026-04-30 13:12 23.71762 70.27960 40473 ft 528 kts 105°
2026-04-30 13:12 23.70730 70.31783 39983 ft 523 kts 105°
2026-04-30 13:12 23.69706 70.35572 39389 ft 521 kts 106°
2026-04-30 13:13 23.67648 70.43176 37842 ft 525 kts 106°
2026-04-30 13:13 23.66611 70.47003 36987 ft 527 kts 106°
2026-04-30 13:13 23.64520 70.54700 35741 ft 533 kts 105°
2026-04-30 13:14 23.63457 70.58607 35513 ft 540 kts 105°
2026-04-30 13:14 23.62387 70.62537 35278 ft 542 kts 105°
2026-04-30 13:14 23.60238 70.70419 34813 ft 543 kts 105°
2026-04-30 13:15 23.59162 70.74358 34397 ft 541 kts 105°
2026-04-30 13:15 23.57006 70.82237 32618 ft 544 kts 105°
2026-04-30 13:15 23.55920 70.86196 31708 ft 545 kts 105°
2026-04-30 13:16 23.54832 70.90160 30832 ft 547 kts 104°
2026-04-30 13:16 23.53745 70.94116 30167 ft 543 kts 104°
2026-04-30 13:16 23.52665 70.98044 29460 ft 539 kts 104°
2026-04-30 13:17 23.50279 71.05701 28165 ft 529 kts 109°
2026-04-30 13:17 23.48922 71.09413 27536 ft 524 kts 109°
2026-04-30 13:17 23.46721 71.15498 26491 ft 516 kts 109°
2026-04-30 13:18 23.44994 71.20342 25523 ft 512 kts 108°
2026-04-30 13:18 23.42432 71.27578 24033 ft 509 kts 108°
2026-04-30 13:18 23.41168 71.31152 23415 ft 504 kts 107°
2026-04-30 13:19 23.39913 71.34701 22724 ft 498 kts 107°
2026-04-30 13:19 23.38680 71.38190 22092 ft 491 kts 108°
2026-04-30 13:19 23.37459 71.41641 21491 ft 484 kts 108°
2026-04-30 13:19 23.36259 71.45032 20892 ft 477 kts 108°
2026-04-30 13:20 23.35072 71.48383 20283 ft 471 kts 108°
2026-04-30 13:20 23.33899 71.51692 19682 ft 466 kts 108°
2026-04-30 13:20 23.32755 71.54918 19085 ft 461 kts 109°
2026-04-30 13:20 23.31603 71.58165 18494 ft 458 kts 109°
2026-04-30 13:21 23.30460 71.61384 17868 ft 454 kts 109°
2026-04-30 13:21 23.29327 71.64569 17214 ft 448 kts 109°
2026-04-30 13:21 23.28210 71.67706 16599 ft 441 kts 109°
2026-04-30 13:22 23.26025 71.73836 15426 ft 428 kts 110°
2026-04-30 13:22 23.24958 71.76830 14852 ft 422 kts 110°
2026-04-30 13:22 23.22862 71.82704 13701 ft 411 kts 110°
2026-04-30 13:23 23.21834 71.85580 13084 ft 406 kts 110°
2026-04-30 13:23 23.19817 71.91224 11959 ft 396 kts 111°
2026-04-30 13:24 23.17844 71.96735 10927 ft 384 kts 111°
2026-04-30 13:24 23.16058 72.01719 10638 ft 322 kts 112°
2026-04-30 13:25 23.14547 72.05930 10390 ft 290 kts 112°
2026-04-30 13:25 23.13056 72.10076 10152 ft 295 kts 112°
2026-04-30 13:26 23.10780 72.16402 8598 ft 306 kts 113°
2026-04-30 13:26 23.09234 72.20693 7691 ft 303 kts 113°
2026-04-30 13:27 23.07714 72.24914 6841 ft 299 kts 114°
2026-04-30 13:28 23.05459 72.31155 5568 ft 293 kts 113°
2026-04-30 13:28 23.04862 72.35487 4499 ft 299 kts 75°
2026-04-30 13:28 23.05635 72.37552 4166 ft 292 kts 62°
2026-04-30 13:29 23.07368 72.40687 3994 ft 292 kts 56°
2026-04-30 13:29 23.09713 72.44282 3999 ft 291 kts 51°
2026-04-30 13:30 23.13362 72.49349 3986 ft 270 kts 50°
2026-04-30 13:31 23.15732 72.52511 3353 ft 268 kts 47°
2026-04-30 13:31 23.19293 72.57073 2263 ft 264 kts 47°
2026-04-30 13:32 23.21625 72.60138 2007 ft 265 kts 48°
2026-04-30 13:32 23.24025 72.63133 2003 ft 261 kts 48°
2026-04-30 13:33 23.26418 72.65962 1993 ft 241 kts 48°
2026-04-30 13:33 23.27255 72.69006 1995 ft 203 kts 111°
2026-04-30 13:34 23.26632 72.70360 2032 ft 198 kts 127°
2026-04-30 13:34 23.24312 72.73978 2006 ft 194 kts 130°
2026-04-30 13:35 23.23493 72.75142 2001 ft 194 kts 139°
2026-04-30 13:35 23.21110 72.75747 2015 ft 180 kts 198°
2026-04-30 13:36 23.18841 72.74810 2005 ft 167 kts 205°
2026-04-30 13:36 23.17795 72.74269 1999 ft 167 kts 214°
2026-04-30 13:36 23.16182 72.72526 1978 ft 147 kts 226°
2026-04-30 13:37 23.15508 72.71807 1918 ft 128 kts 225°
2026-04-30 13:37 23.14273 72.70487 1608 ft 124 kts 225°
2026-04-30 13:38 23.13061 72.69182 1286 ft 120 kts 223°
2026-04-30 13:38 23.12464 72.68539 1143 ft 122 kts 220°
2026-04-30 13:38 23.11262 72.67228 826 ft 124 kts 223°
2026-04-30 13:39 23.10009 72.65900 530 ft 125 kts 220°
2026-04-30 13:39 23.08763 72.64553 225 ft 127 kts 219°
2026-04-30 13:40 23.08174 72.63933 213 ft 102 kts 222°
2026-04-30 13:40 23.07750 72.63474 214 ft 72 kts 225°
2026-04-30 13:40 23.07514 72.63204 215 ft 35 kts 237°
2026-04-30 13:40 23.07438 72.63007 211 ft 18 kts 252°
2026-04-30 13:41 23.07430 72.62935 205 ft 0 kts 278°
2026-04-30 13:41 23.07434 72.62923 203 ft 6 kts 287°
2026-04-30 13:41 23.07465 72.62870 196 ft 10 kts 310°
2026-04-30 13:41 23.07483 72.62847 208 ft 0 kts 311°
2026-04-30 13:43 23.07495 72.62832 209 ft 10 kts 312°
2026-04-30 13:43 23.07520 72.62752 205 ft 15 kts 253°
2026-04-30 13:43 23.07460 72.62666 197 ft 12 kts 224°
2026-04-30 13:44 23.07403 72.62604 204 ft 9 kts 225°
2026-04-30 13:44 23.07386 72.62556 207 ft 7 kts 281°
2026-04-30 13:44 23.07412 72.62523 204 ft 3 kts 316°
2026-04-30 13:44 23.07418 72.62517 206 ft 0 kts 316°